Weather History for Heraklion, Greece

Change the Weather History Date:

Friday, January 11, 2013

  Actual Average Record
Temperature  
Mean Temperature 56 °F -  
Max Temperature 65 °F 59 °F 69 °F (2015)
Min Temperature 46 °F 48 °F 47 °F (2015)
Degree Days  
Heating Degree Days 10    
Growing Degree Days 6 (Base 50)    
Moisture  
Dew Point 45 °F    
Average Humidity 63    
Maximum Humidity 77    
Minimum Humidity 43    
Precipitation  
Precipitation 0.00 in 0.11 in - ()
Sea Level Pressure  
Sea Level Pressure 29.99 in    
Wind  
Wind Speed 18 mph ()    
Max Wind Speed 28 mph    
Max Gust Speed 37 mph    
Visibility 6.2 miles    
Events      
Averages and records for this station are not official NWS values.
T = Trace of Precipitation, MM = Missing Value Source: Averaged Metar Reports

Daily Weather History Graph

Daily Weather History Graph

Search for Another Location

Airport:

Trip Planner

Search our weather history database for the weather conditions in past years. The results will help you decide how hot, cold, wet, or windy it might be!

Date:

Astronomy

Jan. 11, 2013 Rise Set
Actual Time 7:28 AM EET 5:26 PM EET
Civil Twilight 7:00 AM EET 5:54 PM EET
Nautical Twilight 6:29 AM EET 6:25 PM EET
Astronomical Twilight 5:58 AM EET 6:56 PM EET
Moon 6:46 AM EET (1/11) 5:20 PM EET (1/11)
Length of Visible Light 10h 53m
Length of Day
9h 57m
Waning Crescent, 0% of the Moon is Illuminated
Jan 11
Waning Crescent
Jan 11
New
Jan 19
First Quarter
Jan 27
Full
Feb 3
Last Quarter

Hourly Weather History & Observations

Time (EET) Temp. Dew Point Humidity Pressure Visibility Wind Dir Wind Speed Gust Speed Precip Events Conditions
12:20 AM 48.2 °F 33.8 °F 58% 30.09 in 6.2 mi South 19.6 mph - N/A   Scattered Clouds
12:50 AM 50.0 °F 33.8 °F 54% 30.09 in 6.2 mi South 18.4 mph - N/A   Partly Cloudy
1:20 AM 50.0 °F 33.8 °F 54% 30.09 in 6.2 mi South 18.4 mph - N/A   Partly Cloudy
1:50 AM 50.0 °F 33.8 °F 54% 30.09 in 6.2 mi South 20.7 mph - N/A   Partly Cloudy
2:00 AM 50 °F 35 °F 43% 30.11 in 6 mi South 20.7 mph - -   Scattered Clouds
2:20 AM 50.0 °F 33.8 °F 54% 30.09 in 6.2 mi South 19.6 mph - N/A   Partly Cloudy
2:50 AM 48.2 °F 33.8 °F 58% 30.09 in 6.2 mi South 19.6 mph - N/A   Scattered Clouds
3:50 AM 48.2 °F 35.6 °F 62% 30.09 in 6.2 mi South 19.6 mph - N/A   Scattered Clouds
4:20 AM 48.2 °F 35.6 °F 62% 30.09 in 6.2 mi South 23.0 mph - N/A   Scattered Clouds
4:50 AM 48.2 °F 35.6 °F 62% 30.06 in 6.2 mi South 25.3 mph - N/A   Scattered Clouds
5:20 AM 48.2 °F 35.6 °F 62% 30.04 in 6.2 mi South 21.9 mph - N/A   Scattered Clouds
5:50 AM 48.2 °F 33.8 °F 58% 30.04 in 6.2 mi South 19.6 mph - N/A   Scattered Clouds
6:20 AM 51.8 °F 37.4 °F 58% 30.04 in 6.2 mi South 19.6 mph - N/A   Scattered Clouds
7:20 AM 51.8 °F 41.0 °F 67% 30.01 in 6.2 mi South 23.0 mph - N/A   Scattered Clouds
7:50 AM 51.8 °F 44.6 °F 76% 30.01 in 6.2 mi South 26.5 mph - N/A   Scattered Clouds
8:00 AM 52 °F 45 °F 68% 30.02 in 6 mi South 26.5 mph - -   Scattered Clouds
8:20 AM 51.8 °F 44.6 °F 76% 30.01 in 6.2 mi South 25.3 mph 36.8 mph N/A   Scattered Clouds
8:50 AM 53.6 °F 46.4 °F 77% - 6.2 mi South 27.6 mph - N/A   Scattered Clouds
9:20 AM 53.6 °F 46.4 °F 77% 30.04 in 6.2 mi South 24.2 mph - N/A   Scattered Clouds
9:50 AM 55.4 °F 48.2 °F 77% 30.04 in 6.2 mi South 21.9 mph - N/A   Scattered Clouds
10:20 AM 57.2 °F 48.2 °F 72% 30.04 in 6.2 mi South 13.8 mph - N/A   Scattered Clouds
10:50 AM 62.6 °F 50.0 °F 63% 30.01 in 6.2 mi South 10.4 mph - N/A   Scattered Clouds
11:20 AM 62.6 °F 50.0 °F 63% 30.01 in 6.2 mi South 18.4 mph - N/A   Scattered Clouds
11:50 AM 64.4 °F 50.0 °F 59% 29.98 in 6.2 mi South 19.6 mph - N/A   Scattered Clouds
12:20 PM 64.4 °F 50.0 °F 59% 29.98 in 6.2 mi SSW 17.3 mph - N/A   Scattered Clouds
12:50 PM 66.2 °F 50.0 °F 56% 29.95 in 6.2 mi SSW 18.4 mph - N/A   Mostly Cloudy
1:20 PM 66.2 °F 50.0 °F 56% 29.95 in 6.2 mi South 19.6 mph - N/A   Mostly Cloudy
1:50 PM 64.4 °F 48.2 °F 56% 29.95 in 6.2 mi South 21.9 mph - N/A   Mostly Cloudy
2:00 PM 65 °F 48 °F 44% 29.95 in 6 mi South 21.9 mph - -   Scattered Clouds
2:20 PM 64.4 °F 48.2 °F 56% 29.95 in 6.2 mi SSW 20.7 mph - N/A   Mostly Cloudy
2:50 PM 64.4 °F 50.0 °F 59% 29.92 in 6.2 mi SSW 17.3 mph - N/A   Mostly Cloudy
3:20 PM 64.4 °F 50.0 °F 59% 29.92 in 6.2 mi SSW 18.4 mph - N/A   Mostly Cloudy
3:50 PM 62.6 °F 50.0 °F 63% 29.92 in 6.2 mi SSW 15.0 mph 26.5 mph N/A   Mostly Cloudy
4:20 PM 62.6 °F 50.0 °F 63% 29.92 in 6.2 mi SSW 17.3 mph - N/A   Mostly Cloudy
4:50 PM 60.8 °F 46.4 °F 59% 29.92 in 6.2 mi SSW 21.9 mph - N/A   Mostly Cloudy
5:20 PM 60.8 °F 46.4 °F 59% 29.92 in 6.2 mi SSW 21.9 mph - N/A   Mostly Cloudy
5:50 PM 60.8 °F 50.0 °F 68% 29.92 in 6.2 mi South 19.6 mph - N/A   Mostly Cloudy
6:20 PM 60.8 °F 50.0 °F 68% 29.92 in 6.2 mi South 19.6 mph - N/A   Mostly Cloudy
6:50 PM 60.8 °F 50.0 °F 68% 29.92 in 6.2 mi SW 18.4 mph - N/A   Mostly Cloudy
7:20 PM 60.8 °F 50.0 °F 68% 29.92 in 6.2 mi SW 18.4 mph - N/A   Mostly Cloudy
7:50 PM 60.8 °F 50.0 °F 68% 29.95 in 6.2 mi SSW 13.8 mph - N/A   Mostly Cloudy
8:00 PM 60 °F 50 °F 60% 29.96 in 9 mi SSW 13.8 mph - -   Partly Cloudy
8:20 PM 60.8 °F 50.0 °F 68% 29.95 in 6.2 mi SSW 13.8 mph - N/A   Mostly Cloudy
8:50 PM 60.8 °F 50.0 °F 68% 29.95 in 6.2 mi SSW 16.1 mph - N/A   Scattered Clouds
9:20 PM 60.8 °F 50.0 °F 68% 29.95 in 6.2 mi SSW 11.5 mph - N/A   Scattered Clouds
9:50 PM 59.0 °F 48.2 °F 67% 29.95 in 6.2 mi SSW 9.2 mph - N/A   Scattered Clouds
10:20 PM 59.0 °F 48.2 °F 67% 29.95 in 6.2 mi South 12.7 mph - N/A   Scattered Clouds
10:50 PM 59.0 °F 48.2 °F 67% 29.95 in 6.2 mi South 10.4 mph - N/A   Scattered Clouds
11:20 PM 59.0 °F 48.2 °F 67% 29.95 in 6.2 mi South 13.8 mph - N/A   Scattered Clouds
11:50 PM 59.0 °F 48.2 °F 67% 29.95 in 6.2 mi South 11.5 mph - N/A   Scattered Clouds